• In Kazakhstan
  • List of Countries
  • For 7 days
  • Water Temperature
  • Satellite Maps
  • Weather Map
  • News
  • Weather Widgets
  • user-avatar
    Login

    Hourly Weather Sonkovo

    Today, 20 March, Wednesday

    Time Temperature Precipitation Wind Pressure Humidity
    00:00 -1°C° 0 mm 3 mps 745 mmHg 93%
    01:00 -1°C° 0 mm 3 mps 745 mmHg 93%
    02:00 -2°C° 0 mm 3 mps 745 mmHg 94%
    03:00 -4°C° 0 mm 3 mps 745 mmHg 94%
    04:00 -4°C° 0 mm 3 mps 745 mmHg 94%
    05:00 -5°C° 0 mm 3 mps 745 mmHg 94%
    06:00 -4°C° 0 mm 3 mps 745 mmHg 94%
    07:00 -4°C° 0 mm 3 mps 746 mmHg 94%
    08:00 -3°C° 0 mm 4 mps 746 mmHg 94%
    09:00 -3°C° 0 mm 4 mps 746 mmHg 95%
    10:00 -1°C° 0 mm 3 mps 746 mmHg 97%
    11:00 -1°C° 0 mm 3 mps 746 mmHg 98%
    12:00 0°C° 0.1 mm 3 mps 746 mmHg 98%
    13:00 0°C° 0.1 mm 3 mps 746 mmHg 98%
    14:00 +1°C° 0.1 mm 3 mps 747 mmHg 97%
    15:00 0°C° 0.1 mm 3 mps 747 mmHg 95%
    16:00 0°C° 0.1 mm 3 mps 747 mmHg 92%
    17:00 0°C° 0.1 mm 3 mps 747 mmHg 90%
    18:00 -1°C° 0 mm 3 mps 746 mmHg 90%
    19:00 -2°C° 0 mm 3 mps 746 mmHg 91%
    20:00 -4°C° 0 mm 3 mps 746 mmHg 92%
    21:00 -4°C° 0 mm 3 mps 746 mmHg 92%
    22:00 -5°C° 0 mm 3 mps 746 mmHg 93%
    23:00 -5°C° 0 mm 3 mps 746 mmHg 93%

    Tomorrow, 21 March, Thursday

    Time Temperature Precipitation Wind Pressure Humidity
    00:00 -5°C° 0 mm 3 mps 746 mmHg 93%
    01:00 -5°C° 0 mm 3 mps 745 mmHg 93%
    02:00 -4°C° 0 mm 3 mps 745 mmHg 93%
    03:00 -4°C° 0 mm 3 mps 744 mmHg 92%
    04:00 -4°C° 0 mm 3 mps 744 mmHg 92%
    05:00 -5°C° 0 mm 3 mps 743 mmHg 92%
    06:00 -4°C° 0.1 mm 3 mps 743 mmHg 92%
    07:00 -3°C° 0.1 mm 4 mps 743 mmHg 92%
    08:00 -3°C° 0.1 mm 4 mps 743 mmHg 92%
    09:00 -1°C° 0.1 mm 3 mps 743 mmHg 94%
    10:00 -1°C° 0.1 mm 3 mps 743 mmHg 96%
    11:00 0°C° 0.1 mm 3 mps 743 mmHg 98%
    12:00 0°C° 0.2 mm 3 mps 743 mmHg 98%
    13:00 0°C° 0.2 mm 3 mps 743 mmHg 98%
    14:00 0°C° 0.2 mm 3 mps 744 mmHg 97%
    15:00 0°C° 0.1 mm 3 mps 744 mmHg 95%
    16:00 0°C° 0.1 mm 3 mps 744 mmHg 92%
    17:00 -1°C° 0.1 mm 4 mps 744 mmHg 89%
    18:00 -1°C° 0 mm 3 mps 744 mmHg 90%
    19:00 -2°C° 0 mm 3 mps 744 mmHg 91%
    20:00 -2°C° 0 mm 3 mps 744 mmHg 92%
    21:00 -2°C° 0 mm 3 mps 744 mmHg 93%
    22:00 -2°C° 0 mm 2 mps 744 mmHg 94%
    23:00 -2°C° 0 mm 2 mps 744 mmHg 95%

    Day after tomorrow, 22 March, Friday

    Time Temperature Precipitation Wind Pressure Humidity
    00:00 -3°C° 0 mm 2 mps 744 mmHg 95%
    01:00 -3°C° 0 mm 2 mps 744 mmHg 95%
    02:00 -4°C° 0 mm 2 mps 744 mmHg 94%
    03:00 -4°C° 0 mm 2 mps 743 mmHg 94%
    04:00 -4°C° 0 mm 2 mps 743 mmHg 94%
    05:00 -4°C° 0 mm 2 mps 742 mmHg 94%
    06:00 -4°C° 0.1 mm 3 mps 742 mmHg 94%
    07:00 -2°C° 0.1 mm 3 mps 741 mmHg 93%
    08:00 -2°C° 0.1 mm 4 mps 740 mmHg 93%
    09:00 -2°C° 0.4 mm 4 mps 740 mmHg 94%
    10:00 -2°C° 0.4 mm 4 mps 739 mmHg 96%
    11:00 -1°C° 0.4 mm 4 mps 738 mmHg 97%
    12:00 -1°C° 1.2 mm 4 mps 738 mmHg 98%
    13:00 -1°C° 1.2 mm 4 mps 737 mmHg 98%
    14:00 -1°C° 1.2 mm 4 mps 737 mmHg 99%
    15:00 -1°C° 0.2 mm 5 mps 737 mmHg 93%
    16:00 -1°C° 0.2 mm 5 mps 737 mmHg 87%
    17:00 -2°C° 0.2 mm 6 mps 737 mmHg 81%
    18:00 -3°C° 0 mm 6 mps 738 mmHg 83%
    19:00 -4°C° 0 mm 6 mps 738 mmHg 84%
    20:00 -4°C° 0 mm 6 mps 739 mmHg 86%
    21:00 -5°C° 0 mm 6 mps 739 mmHg 87%
    22:00 -5°C° 0 mm 5 mps 739 mmHg 87%
    23:00 -5°C° 0 mm 5 mps 740 mmHg 88%

    23 March, Saturday

    Time Temperature Precipitation Wind Pressure Humidity
    00:00 -5°C° 0 mm 5 mps 740 mmHg 89%
    01:00 -5°C° 0 mm 5 mps 741 mmHg 90%
    02:00 -5°C° 0 mm 5 mps 742 mmHg 91%
    03:00 -4°C° 0 mm 4 mps 742 mmHg 92%
    04:00 -4°C° 0 mm 4 mps 743 mmHg 92%
    05:00 -2°C° 0 mm 3 mps 743 mmHg 93%
    06:00 -2°C° 0 mm 3 mps 744 mmHg 93%
    07:00 -2°C° 0 mm 3 mps 744 mmHg 93%
    08:00 -1°C° 0 mm 3 mps 744 mmHg 93%
    09:00 -1°C° 0 mm 3 mps 744 mmHg 94%
    10:00 -1°C° 0 mm 2 mps 744 mmHg 95%
    11:00 +1°C° 0 mm 2 mps 744 mmHg 96%
    12:00 +1°C° 0 mm 2 mps 743 mmHg 94%
    13:00 0°C° 0 mm 3 mps 742 mmHg 92%
    14:00 0°C° 0 mm 3 mps 741 mmHg 90%
    15:00 -1°C° 0 mm 4 mps 740 mmHg 89%
    16:00 -1°C° 0 mm 4 mps 739 mmHg 88%
    17:00 -1°C° 0 mm 5 mps 738 mmHg 86%
    18:00 -1°C° 0.5 mm 5 mps 737 mmHg 87%
    19:00 -1°C° 0.5 mm 5 mps 736 mmHg 88%
    20:00 -1°C° 0.5 mm 6 mps 735 mmHg 89%
    21:00 0°C° 0.2 mm 5 mps 735 mmHg 89%
    22:00 0°C° 0.2 mm 5 mps 734 mmHg 89%
    23:00 0°C° 0.2 mm 5 mps 734 mmHg 89%

    24 March, Sunday

    Time Temperature Precipitation Wind Pressure Humidity
    00:00 -1°C° 0 mm 5 mps 734 mmHg 87%
    01:00 -2°C° 0 mm 5 mps 733 mmHg 86%
    02:00 -4°C° 0 mm 5 mps 733 mmHg 84%
    03:00 -4°C° 0 mm 5 mps 733 mmHg 85%
    04:00 -4°C° 0 mm 5 mps 732 mmHg 86%
    05:00 -4°C° 0 mm 5 mps 732 mmHg 87%
    06:00 -4°C° 0 mm 6 mps 732 mmHg 83%
    07:00 -3°C° 0 mm 6 mps 732 mmHg 79%
    08:00 -3°C° 0 mm 7 mps 731 mmHg 76%
    09:00 -3°C° 0.1 mm 7 mps 731 mmHg 76%
    10:00 -4°C° 0.1 mm 8 mps 731 mmHg 76%
    11:00 -4°C° 0.1 mm 8 mps 731 mmHg 76%
    12:00 -4°C° 0.1 mm 8 mps 731 mmHg 76%
    13:00 -2°C° 0.1 mm 8 mps 730 mmHg 76%
    14:00 -2°C° 0.1 mm 8 mps 730 mmHg 76%
    15:00 -2°C° 0.1 mm 8 mps 730 mmHg 77%
    16:00 -3°C° 0.1 mm 9 mps 730 mmHg 77%
    17:00 -4°C° 0.1 mm 9 mps 730 mmHg 77%
    18:00 -4°C° 0.1 mm 9 mps 730 mmHg 78%
    19:00 -4°C° 0.1 mm 9 mps 731 mmHg 79%
    20:00 -4°C° 0.1 mm 10 mps 731 mmHg 80%
    21:00 -4°C° 0.1 mm 9 mps 731 mmHg 79%
    22:00 -5°C° 0.1 mm 9 mps 732 mmHg 79%
    23:00 -5°C° 0.1 mm 9 mps 733 mmHg 79%

    25 March, Monday

    Time Temperature Precipitation Wind Pressure Humidity
    00:00 -5°C° 0 mm 8 mps 733 mmHg 79%
    01:00 -6°C° 0 mm 8 mps 734 mmHg 80%
    02:00 -6°C° 0 mm 7 mps 734 mmHg 80%
    03:00 -7°C° 0 mm 7 mps 734 mmHg 80%
    04:00 -6°C° 0 mm 6 mps 735 mmHg 80%
    05:00 -6°C° 0 mm 6 mps 735 mmHg 80%
    06:00 -6°C° 0 mm 5 mps 735 mmHg 80%
    07:00 -6°C° 0 mm 5 mps 735 mmHg 80%
    08:00 -6°C° 0 mm 5 mps 735 mmHg 80%
    09:00 -4°C° 0 mm 4 mps 735 mmHg 77%
    10:00 -4°C° 0 mm 4 mps 735 mmHg 74%
    11:00 -2°C° 0 mm 3 mps 735 mmHg 72%
    12:00 -1°C° 0 mm 3 mps 734 mmHg 72%
    13:00 -1°C° 0 mm 2 mps 734 mmHg 71%
    14:00 +1°C° 0 mm 2 mps 733 mmHg 71%
    15:00 +1°C° 0 mm 2 mps 733 mmHg 73%
    16:00 -1°C° 0 mm 2 mps 733 mmHg 75%
    17:00 +1°C° 0 mm 1 mps 732 mmHg 76%
    18:00 -2°C° 0 mm 2 mps 732 mmHg 78%
    19:00 -2°C° 0 mm 2 mps 732 mmHg 80%
    20:00 -3°C° 0 mm 2 mps 732 mmHg 82%
    21:00 -3°C° 0 mm 2 mps 732 mmHg 84%
    22:00 -3°C° 0 mm 2 mps 731 mmHg 85%
    23:00 -3°C° 0 mm 2 mps 731 mmHg 86%
    Show more